Voltar ao catálogo

WGS 7

USA 263

AtivoMilitarGEO
NORAD 40746·PAYLOAD·🇺🇸 United States

Lançado Jul 24, 2015 de Cape Canaveral Space Force Station

Loading…

TLE

AtualizadoSource: Space-Track

Época: Sep 14, 2026, 21:28 UTC

1 40746U 15036A   26257.89487396  .00000011  00000-0  00000-0 0  9994
2 40746   0.0121 152.9575 0000386 297.2714  40.7780  1.00273090 40776

Acompanhe WGS 7 em tempo real com AllMySat

Download on the App Store